| time (UTC) | temp F | wind direction | speed knots | gust knots | rain 1hr in | rain 24hr in | rain mn in | humidity % | barometer mb |
| 20260506121927 | 59 | 165 | 1.7 | 6.1 | 0.00 | 0.01 | 0.00 | 83 | 1010.4 |
| 20260506120356 | 58 | 169 | 2.6 | 6.1 | 0.00 | 0.01 | 0.00 | 83 | 1010.7 |
| 20260506115012 | 58 | 167 | 1.7 | 4.3 | 0.00 | 0.01 | 0.00 | 84 | 1010.5 |
| 20260506113442 | 57 | 167 | 1.7 | 4.3 | 0.00 | 0.01 | 0.00 | 85 | 1010.3 |
| 20260506111915 | 56 | 168 | 2.6 | 5.2 | 0.00 | 0.01 | 0.00 | 86 | 1010.4 |
| 20260506110415 | 56 | 168 | 2.6 | 6.1 | 0.00 | 0.01 | 0.00 | 87 | 1010.5 |
| 20260506104829 | 55 | 167 | 0.9 | 5.2 | 0.00 | 0.01 | 0.00 | 87 | 1010.4 |
| 20260506103441 | 55 | 168 | 1.7 | 4.3 | 0.00 | 0.01 | 0.00 | 87 | 1010.3 |
| 20260506103332 | 55 | 168 | 1.7 | 4.3 | 0.00 | 0.01 | 0.00 | 87 | 1010.3 |
| 20260506101924 | 55 | 168 | 1.7 | 5.2 | 0.00 | 0.01 | 0.00 | 87 | 1010.3 |
| 20260506100412 | 55 | 169 | 1.7 | 5.2 | 0.00 | 0.01 | 0.00 | 87 | 1010.3 |
| 20260506094958 | 55 | 169 | 1.7 | 6.1 | 0.00 | 0.01 | 0.00 | 87 | 1010.3 |
| 20260506094832 | 55 | 169 | 1.7 | 6.1 | 0.00 | 0.01 | 0.00 | 87 | 1010.3 |
| 20260506093507 | 55 | 169 | 0.9 | 5.2 | 0.00 | 0.01 | 0.00 | 87 | 1010.2 |
| 20260506091937 | 55 | 169 | 1.7 | 4.3 | 0.00 | 0.01 | 0.00 | 87 | 1010.3 |
| 20260506090509 | 55 | 169 | 0.9 | 2.6 | 0.00 | 0.01 | 0.00 | 86 | 1010.4 |
| 20260506090320 | 55 | 169 | 0.9 | 2.6 | 0.00 | 0.01 | 0.00 | 86 | 1010.4 |
| 20260506084847 | 55 | 169 | 0.9 | 4.3 | 0.00 | 0.01 | 0.00 | 86 | 1010.5 |
| 20260506083449 | 55 | 169 | 0.9 | 3.5 | 0.00 | 0.01 | 0.00 | 86 | 1010.6 |
| 20260506081854 | 55 | 169 | 0.9 | 5.2 | 0.00 | 0.01 | 0.00 | 86 | 1010.6 |
| 20260506080353 | 55 | 169 | 0.9 | 5.2 | 0.00 | 0.01 | 0.00 | 85 | 1010.6 |
| 20260506073444 | 56 | 168 | 1.7 | 5.2 | 0.00 | 0.01 | 0.00 | 85 | 1010.8 |
| 20260506071957 | 56 | 168 | 0.9 | 4.3 | 0.00 | 0.01 | 0.00 | 85 | 1010.9 |
| 20260506061926 | 56 | 165 | 1.7 | 6.1 | 0.00 | 0.01 | 0.00 | 83 | 1010.8 |
| 20260506060510 | 56 | 165 | 1.7 | 8.7 | 0.00 | 0.01 | 0.00 | 83 | 1010.8 |
| 20260506060404 | 56 | 165 | 1.7 | 8.7 | 0.00 | 0.01 | 0.00 | 83 | 1010.8 |
| 20260506050510 | 57 | 163 | 0.9 | 10.4 | 0.00 | 0.01 | 0.00 | 81 | 1011.1 |
| 20260506050352 | 57 | 163 | 0.9 | 10.4 | 0.00 | 0.01 | 0.00 | 81 | 1011.1 |
| 20260506044932 | 57 | 163 | 2.6 | 9.6 | 0.00 | 0.01 | 0.00 | 81 | 1011.2 |
| 20260506043509 | 57 | 169 | 2.6 | 9.6 | 0.00 | 0.01 | 0.00 | 80 | 1011.1 |
| 20260506043405 | 57 | 169 | 2.6 | 9.6 | 0.00 | 0.01 | 0.00 | 80 | 1011.1 |
| 20260506041858 | 58 | 169 | 1.7 | 9.6 | 0.00 | 0.01 | 0.00 | 80 | 1011.0 |
| 20260506040451 | 58 | 166 | 2.6 | 8.7 | 0.00 | 0.01 | 0.00 | 79 | 1011.2 |
| 20260506040345 | 58 | 166 | 2.6 | 8.7 | 0.00 | 0.01 | 0.00 | 79 | 1011.2 |
| 20260506034920 | 59 | 167 | 2.6 | 8.7 | 0.00 | 0.01 | 0.01 | 79 | 1011.3 |
| 20260506033422 | 59 | 170 | 2.6 | 7.8 | 0.00 | 0.01 | 0.01 | 79 | 1011.1 |
| 20260506032019 | 59 | 172 | 3.5 | 8.7 | 0.00 | 0.01 | 0.01 | 78 | 1011.0 |
| 20260506031858 | 59 | 172 | 3.5 | 8.7 | 0.00 | 0.01 | 0.01 | 78 | 1011.0 |
| 20260506030447 | 59 | 171 | 3.5 | 8.7 | 0.00 | 0.01 | 0.01 | 78 | 1011.2 |
| 20260506024918 | 59 | 167 | 3.5 | 8.7 | 0.00 | 0.01 | 0.01 | 77 | 1011.2 |
| 20260506023350 | 59 | 166 | 2.6 | 7.0 | 0.00 | 0.01 | 0.01 | 77 | 1011.3 |
| 20260506022003 | 60 | 166 | 2.6 | 8.7 | 0.00 | 0.01 | 0.01 | 75 | 1011.1 |
| 20260506021835 | 60 | 166 | 2.6 | 8.7 | 0.00 | 0.01 | 0.01 | 75 | 1011.1 |
| 20260506020403 | 60 | 172 | 2.6 | 8.7 | 0.00 | 0.01 | 0.01 | 74 | 1011.2 |
| 20260506014910 | 61 | 171 | 2.6 | 7.8 | 0.00 | 0.01 | 0.01 | 73 | 1011.0 |
| 20260506013527 | 62 | 170 | 2.6 | 8.7 | 0.00 | 0.01 | 0.01 | 71 | 1010.8 |
| 20260506011925 | 62 | 170 | 1.7 | 7.0 | 0.00 | 0.01 | 0.01 | 70 | 1010.6 |
| 20260506010438 | 63 | 170 | 3.5 | 12.2 | 0.00 | 0.01 | 0.01 | 69 | 1010.5 |
| 20260506005001 | 63 | 173 | 2.6 | 6.1 | 0.00 | 0.01 | 0.01 | 68 | 1010.4 |
| 20260506003448 | 63 | 169 | 2.6 | 6.1 | 0.00 | 0.01 | 0.01 | 68 | 1010.3 |
| 20260506002002 | 64 | 165 | 2.6 | 7.0 | 0.00 | 0.01 | 0.01 | 67 | 1010.2 |
| 20260506001843 | 64 | 165 | 2.6 | 7.0 | 0.00 | 0.01 | 0.01 | 67 | 1010.2 |
| 20260506000453 | 64 | 170 | 2.6 | 7.0 | 0.00 | 0.01 | 0.01 | 67 | 1010.0 |
| 20260505234851 | 64 | 171 | 3.5 | 7.0 | 0.00 | 0.01 | 0.01 | 66 | 1010.0 |
| 20260505233505 | 63 | 169 | 1.7 | 7.8 | 0.00 | 0.01 | 0.01 | 67 | 1009.6 |
| 20260505233354 | 63 | 169 | 1.7 | 7.8 | 0.00 | 0.01 | 0.01 | 67 | 1009.6 |
| 20260505231927 | 64 | 169 | 3.5 | 11.3 | 0.00 | 0.01 | 0.01 | 67 | 1009.5 |
| 20260505230532 | 64 | 169 | 2.6 | 8.7 | 0.00 | 0.01 | 0.01 | 65 | 1009.2 |
| 20260505230410 | 64 | 169 | 2.6 | 8.7 | 0.00 | 0.01 | 0.01 | 65 | 1009.2 |
| 20260505224949 | 65 | 172 | 4.3 | 11.3 | 0.01 | 0.01 | 0.01 | 64 | 1009.1 |
| 20260505223407 | 66 | 170 | 2.6 | 10.4 | 0.01 | 0.01 | 0.01 | 62 | 1009.2 |
| 20260505221953 | 67 | 171 | 3.5 | 12.2 | 0.01 | 0.01 | 0.01 | 61 | 1008.9 |
| 20260505220414 | 67 | 166 | 3.5 | 12.2 | 0.01 | 0.01 | 0.01 | 61 | 1009.0 |
| 20260505214936 | 68 | 141 | 4.3 | 9.6 | 0.00 | 0.00 | 0.00 | 60 | 1009.0 |
| 20260505214833 | 68 | 141 | 4.3 | 9.6 | 0.00 | 0.00 | 0.00 | 60 | 1009.0 |
| 20260505213514 | 68 | 141 | 2.6 | 9.6 | 0.00 | 0.00 | 0.00 | 60 | 1008.9 |
| 20260505213322 | 68 | 141 | 2.6 | 9.6 | 0.00 | 0.00 | 0.00 | 60 | 1008.9 |
| 20260505211914 | 67 | 140 | 3.5 | 12.2 | 0.00 | 0.00 | 0.00 | 61 | 1008.8 |
| 20260505210436 | 68 | 126 | 6.1 | 12.2 | 0.00 | 0.00 | 0.00 | 60 | 1008.8 |
| 20260505204931 | 68 | 135 | 3.5 | 10.4 | 0.00 | 0.00 | 0.00 | 60 | 1008.9 |
| 20260505203354 | 70 | 137 | 3.5 | 9.6 | 0.00 | 0.00 | 0.00 | 58 | 1008.9 |
| 20260505202016 | 70 | 139 | 3.5 | 13.9 | 0.00 | 0.00 | 0.00 | 58 | 1008.9 |
| 20260505201825 | 70 | 139 | 3.5 | 13.9 | 0.00 | 0.00 | 0.00 | 58 | 1008.9 |
| 20260505200441 | 72 | 139 | 3.5 | 12.2 | 0.00 | 0.00 | 0.00 | 55 | 1009.0 |
| 20260505200335 | 72 | 139 | 3.5 | 12.2 | 0.00 | 0.00 | 0.00 | 55 | 1009.0 |
| 20260505194953 | 72 | 141 | 2.6 | 7.0 | 0.00 | 0.00 | 0.00 | 57 | 1009.1 |
| 20260505194823 | 72 | 141 | 2.6 | 7.0 | 0.00 | 0.00 | 0.00 | 57 | 1009.1 |
| 20260505193428 | 72 | 141 | 3.5 | 7.8 | 0.00 | 0.00 | 0.00 | 58 | 1009.2 |
| 20260505191922 | 71 | 141 | 2.6 | 9.6 | 0.00 | 0.00 | 0.00 | 58 | 1009.6 |
| 20260505190422 | 71 | 143 | 2.6 | 6.1 | 0.00 | 0.00 | 0.00 | 60 | 1009.7 |
| 20260505184914 | 70 | 143 | 3.5 | 7.8 | 0.00 | 0.00 | 0.00 | 60 | 1010.0 |
| 20260505183521 | 70 | 143 | 3.5 | 7.0 | 0.00 | 0.00 | 0.00 | 61 | 1010.1 |
| 20260505183413 | 70 | 143 | 3.5 | 7.0 | 0.00 | 0.00 | 0.00 | 61 | 1010.1 |
| 20260505181936 | 70 | 143 | 2.6 | 9.6 | 0.00 | 0.00 | 0.00 | 62 | 1010.2 |
| 20260505181833 | 70 | 143 | 2.6 | 9.6 | 0.00 | 0.00 | 0.00 | 62 | 1010.2 |
| 20260505180427 | 70 | 142 | 2.6 | 7.0 | 0.00 | 0.00 | 0.00 | 64 | 1010.2 |
| 20260505174914 | 69 | 141 | 1.7 | 7.0 | 0.00 | 0.00 | 0.00 | 63 | 1010.4 |
| 20260505173400 | 70 | 141 | 2.6 | 7.8 | 0.00 | 0.00 | 0.00 | 63 | 1010.6 |
| 20260505172020 | 71 | 142 | 1.7 | 7.0 | 0.00 | 0.00 | 0.00 | 60 | 1010.6 |
| 20260505171835 | 71 | 142 | 1.7 | 7.0 | 0.00 | 0.00 | 0.00 | 60 | 1010.6 |
| 20260505170414 | 71 | 142 | 3.5 | 7.8 | 0.00 | 0.00 | 0.00 | 59 | 1010.6 |
| 20260505164925 | 71 | 141 | 1.7 | 6.1 | 0.00 | 0.00 | 0.00 | 59 | 1010.5 |
| 20260505163510 | 72 | 141 | 1.7 | 7.8 | 0.00 | 0.00 | 0.00 | 59 | 1010.9 |
| 20260505163402 | 72 | 141 | 1.7 | 7.8 | 0.00 | 0.00 | 0.00 | 59 | 1010.9 |
| 20260505162003 | 71 | 141 | 3.5 | 7.8 | 0.00 | 0.00 | 0.00 | 57 | 1011.0 |
| 20260505161851 | 71 | 141 | 3.5 | 7.8 | 0.00 | 0.00 | 0.00 | 57 | 1011.0 |
| 20260505160420 | 72 | 141 | 1.7 | 6.1 | 0.00 | 0.00 | 0.00 | 59 | 1011.0 |
| 20260505153348 | 70 | 141 | 0.9 | 7.0 | 0.00 | 0.00 | 0.00 | 60 | 1011.2 |
| 20260505152028 | 69 | 141 | 2.6 | 6.1 | 0.00 | 0.00 | 0.00 | 60 | 1011.4 |
| 20260505151906 | 69 | 141 | 2.6 | 6.1 | 0.00 | 0.00 | 0.00 | 60 | 1011.4 |
| 20260505150532 | 69 | 141 | 2.6 | 6.1 | 0.00 | 0.00 | 0.00 | 62 | 1011.7 |
| 20260505150337 | 69 | 141 | 2.6 | 6.1 | 0.00 | 0.00 | 0.00 | 62 | 1011.7 |
| 20260505140405 | 67 | 139 | 1.7 | 4.3 | 0.00 | 0.00 | 0.00 | 63 | 1011.3 |
| 20260505124950 | 63 | 140 | 0.9 | 4.3 | 0.00 | 0.00 | 0.00 | 72 | 1011.2 |
| 20260505123507 | 61 | 140 | 1.7 | 3.5 | 0.00 | 0.00 | 0.00 | 74 | 1011.0 |
| 20260505123350 | 61 | 140 | 1.7 | 3.5 | 0.00 | 0.00 | 0.00 | 74 | 1011.0 |